Regional Weather Roundup
Issued by NWS Glasgow, MT

Home | Current Version | Previous Version | Text Only | Print | Product List | Glossary On
Versions: 1 2 3 4 5 6 7 8 9 10 11 12 13 14 15 16 17 18 19 20 21 22 23 24 25 26 27 28 29 30 31 32 33 34 35 36 37 38 39 40 41 42 43 44 45 46 47 48 49 50
000
ASUS45 KGGW 202315
RWRGGW
HOURLY REGIONAL WEATHER ROUNDUP FOR NORTHEAST MONTANA
NATIONAL WEATHER SERVICE GLASGOW MONTANA
400 PM MST TUE FEB 20 2018

NOTE: "FAIR" INDICATES FEW OR NO CLOUDS BELOW 12,000 FEET WITH NO
SIGNIFICANT WEATHER AND/OR OBSTRUCTIONS TO VISISBILITY.

NORTHEAST MONTANA


CITY           SKY/WX    TMP DP  RH WIND       PRES   REMARKS
GLASGOW        FAIR      -2 -10  69 W10       30.13R WCI -19
PLENTYWOOD       N/A      7  -5  57 W13         N/A  WCI  -9
WOLF POINT     FAIR       0  -8  69 W13       30.17R WCI -18
JORDAN           N/A      0  -9  65 W8        30.12R
WINNETT          N/A      2 -13  49 CALM        N/A
SIDNEY         FAIR       5  -5  63 SW8       30.17R
GLENDIVE       FAIR       1  -7  68 SW9       30.15R
MALTA            N/A     -5 -12  72 SW10        N/A  WCI -23
SCOBEY           N/A      1 -12  54 CALM      30.04R

FORT PECK REPORTS


CITY           SKY/WX    TMP DP  RH WIND       PRES   REMARKS
FORT PECK        N/A      5  -4  66 SE3         N/A
THE PINES        N/A      9  -7  48 SW8         N/A

SOUTHEAST MONTANA


CITY           SKY/WX    TMP DP  RH WIND       PRES   REMARKS
BILLINGS       FAIR       8  -3  61 SW15      30.08R WCI  -9
MILES CITY     FAIR       0  -7  72 S6        30.16R
BAKER          FAIR       0  -6  76 W15       30.11R WCI -19
LIVINGSTON     FAIR      11  -2  56 NW9       29.98R

CENTRAL MONTANA


CITY           SKY/WX    TMP DP  RH WIND       PRES   REMARKS
HAVRE          FAIR      -1  -8  72 SW18      30.13R WCI -22
LEWISTOWN      FAIR       1  -8  66 SW8       30.01R
GREAT FALLS    FAIR       6  -4  63 SW9       30.05R
CUT BANK       CLOUDY     7   0  73 NW8       30.03R
HELENA         FAIR       8  -6  52 N3        30.07S
BUTTE          FAIR       4  -6  63 S3        29.92S
BOZEMAN        FAIR       6  -8  52 CALM      30.04S

WESTERN MONTANA


CITY           SKY/WX    TMP DP  RH WIND       PRES   REMARKS
MISSOULA       CLOUDY    14  -1  51 CALM      30.12S
KALISPELL      NOT AVBL

NORTH DAKOTA


CITY           SKY/WX    TMP DP  RH WIND       PRES   REMARKS
WILLISTON      FAIR       4  -4  69 W12G22    30.14R WCI -12
DICKINSON      FAIR       4  -5  66 W16       30.09R WCI -15
MINOT          FAIR       9  -2  61 SW21G26   30.08R WCI -11
BISMARCK       FAIR      11  -1  58 W18       30.18R WCI  -7

SOUTHERN SASKATCHEWAN


CITY           SKY/WX    TMP DP  RH WIND       PRES   REMARKS
REGINA         NOT AVBL
ESTEVAN        NOT AVBL
SWIFT CURRENT  NOT AVBL




USA.gov is the U.S. government's official web portal to all federal, state and local government web resources and services.